Погода в Красной Реке

Россия / Ульяновская область     54°34′30″N   49°07′19″E
темп.,
°C
ветер,
м/с
пор.,
м/с
влажн.,
%
обл.,
%
осадки,
мм/ч
давл.,
гПа
погр.,
м
9 мая, вс
вс901:00+13юв51261100 0.0 1012193
04:00+11ююв487178 0.0 1012114
07:00+13ююв5107410 0.0 1012245
10:00+18ю7105758 0.0 1012686
13:00+20ю7105397 0.0 10121031
16:00+20ююв61060100 0.0 1012993
19:00+18юв496796 0.0 1012241
22:00+15юв4974100 0.3 1013151
10 мая, пн
пн1001:00+15юв3574100 0.3 101380
04:00+13юв3677100 0.3 1015103
07:00+15в2276100 0.0 101677
10:00+18юв4658100 0.0 1017442
13:00+22юв4644100 0.0 10181482
16:00+23вюв4544100 0.0 10192129
19:00+20в3661100 0.0 1020119
22:00+16всв4662100 0.0 102176
11 мая, вт
вт1101:00+14в3566100 0.0 102266
04:00+13всв3468100 0.0 102349
07:00+15всв3772100 0.0 1024152
10:00+19вюв3554100 0.0 1026467
13:00+22вюв4643100 0.0 10261724
16:00+23вюв5640100 0.0 10261962
19:00+20в226083 0.0 102630
22:00+16в336686 0.0 102733
12 мая, ср
ср1201:00+15вюв35695 0.0 102755
04:00+13юв336933 0.0 102730
07:00+15в367253 0.0 1028146
10:00+20юв465592 0.0 1028634
13:00+22юв57446 0.0 10281761
16:00+23юв57426 0.0 10272076
19:00+20вюв366094 0.0 1027131
22:00+16вюв4658100 0.0 102796
13 мая, чт
чт1301:00+15вюв465999 0.0 102880
04:00+13вюв356480 0.0 102877
07:00+15вюв496680 0.0 1028211
10:00+20юв584832 0.0 1028634
13:00+23юв5739100 0.0 10271384
16:00+24юв564287 0.0 10271482
19:00+21вюв475764 0.0 1026152
22:00+17юв475655 0.0 102693